Printer-friendly version

IAU Minor Planet Center

Minor Planet Center

MPEC 2008-F02 : COMET C/2008 A1 (McNAUGHT)

The following Minor Planet Electronic Circular may be linked-to from your own Web pages, but must not otherwise be redistributed electronically.


Read MPEC 2008-F01 Read MPEC 2008-F03


M.P.E.C. 2008-F02                                Issued 2008 Mar. 17, 01:39 UT

     The Minor Planet Electronic Circulars contain information on unusual
         minor planets and routine data on comets.  They are published
   on behalf of Commission 20 of the International Astronomical Union by the
          Minor Planet Center, Smithsonian Astrophysical Observatory,
                          Cambridge, MA 02138, U.S.A.

             Prepared using the Tamkin Foundation Computer Network

                              MPC@CFA.HARVARD.EDU
          URL http://www.cfa.harvard.edu/iau/mpc.html  ISSN 1523-6714

                          COMET C/2008 A1 (McNAUGHT)

Observations:
    CK08A010  C2008 02 12.17538 05 42 23.48 -43 52 32.6                 EF002834
    CK08A010  C2008 02 12.18347 05 42 22.75 -43 52 30.3                 EF002834
    CK08A010  C2008 02 17.10583 05 36 02.13 -43 26 00.3                 EF002834
    CK08A010  C2008 02 17.12657 05 36 00.59 -43 25 52.9                 EF002834
    CK08A010  C2008 02 17.16377 05 35 57.86 -43 25 39.3                 EF002834
    CK08A010  C2008 02 27.05134 05 25 23.43 -42 18 32.0                 EF002834
    CK08A010  C2008 02 27.09473 05 25 20.96 -42 18 12.1                 EF002834
    CK08A010  C2008 03 11.34941 05 15 57.88 -40 30 22.0          14.5 N EF002467
    CK08A010  C2008 03 11.35102 05 15 57.89 -40 30 22.0          14.4 N EF002467
    CK08A010  C2008 03 11.35198 05 15 57.89 -40 30 21.9          14.4 N EF002467
    CK08A010  C2008 03 11.45119 05 15 54.90 -40 29 32.4          15.6 T EF002423
    CK08A010  C2008 03 11.47376 05 15 54.20 -40 29 20.5          15.7 T EF002423
    CK08A010  C2008 03 12.45837 05 15 25.72 -40 20 57.1          15.7 T EF002423
    CK08A010  C2008 03 12.48094 05 15 25.07 -40 20 45.1          15.6 T EF002423
    CK08A010  C2008 03 13.44016 05 14 59.07 -40 12 33.7          15.7 T EF002423
    CK08A010  C2008 03 13.47326 05 14 58.20 -40 12 16.5          15.7 T EF002423
    CK08A010  C2008 03 15.41234 05 14 10.89 -39 55 44.0          15.4 T EF002900
    CK08A010  C2008 03 15.42418 05 14 10.60 -39 55 37.5                 EF002900
    CK08A010  C2008 03 15.46874 05 14 09.51 -39 55 11.4          15.6 T EF002423
    CK08A010  C2008 03 15.48153 05 14 09.24 -39 55 04.7          15.6 T EF002423
    CK08A010  C2008 03 16.47762 05 13 47.53 -39 46 32.0          16.2 N EF002467
    CK08A010  C2008 03 16.47942 05 13 47.52 -39 46 31.7          16.1 N EF002467
    CK08A010  C2008 03 16.48023 05 13 47.50 -39 46 31.4          16.3 N EF002467
    CK08A010  C2008 03 16.48376 05 13 47.46 -39 46 30.0          15.5 T EF002423
    CK08A010  C2008 03 16.51498 05 13 46.79 -39 46 13.6          15.8 T EF002423
    CK08A010  C2008 03 16.51745 05 13 46.72 -39 46 12.0          16.7 N EF002415
    CK08A010  C2008 03 16.52381 05 13 46.58 -39 46 08.6          16.7 N EF002415

Observer details:
415 Kambah, near Canberra.  Observer D. Herald.  0.36-m f/3.9
    Schmidt-Cassegrain + CCD.
423 North Ryde.  Observer S. G. McAndrew.  0.20-m f/4 hyperbolic astrograph
    + CCD.
467 Auckland Observatory.  Observers G. W. Christie, T. Natusch.  Measurer
    G. W. Christie.  0.40-m f/10 Schmidt-Cassegrain + CCD.
834 Buenos Aires-AAAA.  Observers R. Mackintosh, M. Konishi, R. Mykytyuk.
    Measurer R. Mackintosh.  0.25-m f/6.3 Schmidt-Cassegrain + CCD.
900 Moriyama.  Observer Y. Ikari.  0.25-m f/6.3 Schmidt-Cassegrain + CCD.

Orbital elements:
    C/2008 A1 (McNaught)
Epoch 2008 Sept. 11.0 TT = JDT 2454720.5
T 2008 Sept. 29.13375 TT                                MPC
q   1.0730154            (2000.0)            P               Q
z  -0.0002792      Peri.  348.48312     +0.10879407     +0.15323197
 +/-0.0000165      Node   277.88570     -0.81501800     -0.55193625
e   1.0002996      Incl.   82.55055     -0.56913048     +0.81968674
Residuals in seconds of arc
080110 E12  0.1+  0.1+    080120 834  0.4-  0.4-    080208 467  0.1-  0.0
080110 E12  0.2+  0.2+    080126 467  0.0   0.1+    080208 467  0.1+  0.0
080110 E12  0.0   0.1+    080126 467  0.1+  0.1+    080209 J46  0.0   0.3+
080110 E12  0.0   0.2+    080126 467  0.1+  0.1+    080209 J46  0.2+  0.4+
080110 E12  0.1+  0.1+    080126 467  0.0   0.0     080210 D88  0.3+  0.4-
080110 E12  0.2+  0.1+    080126 467  0.1+  0.1+    080212 834  0.5+  0.1+
080110 E12  0.1+  0.0     080126 E12  0.1+  0.0     080212 834  0.2-  0.0
080111 673  0.0   0.2-    080126 E12  0.2-  0.1+    080212 415  0.0   0.2-
080111 H06  0.2-  0.6-    080127 423  0.0   0.2-    080212 415  0.1+  0.3+
080111 673  0.2+  0.0     080127 423  0.0   0.2-    080215 423  0.1-  0.3-
080111 H06  0.0   0.0     080128 E00  1.7-  1.1-    080215 423  0.1+  0.5-
080111 673  0.1+  0.4+    080128 E00  0.3-  1.4-    080217 834  0.0   0.1+
080111 673  0.0   0.7+    080128 E00  1.7-  1.1-    080217 834  0.0   0.0
080111 423  0.2+  0.3+    080128 415  0.1-  0.0     080217 834  0.2+  0.1+
080111 423  0.5+  0.1-    080128 415  0.2-  0.1+    080217 D88  1.1+  0.9+
080111 E12  0.1+  0.2+    080131 372  0.1-  0.4+    080217 D88  0.2-  0.4+
080111 E12  0.1+  0.2+    080131 372  0.3+  0.0     080218 J46  0.5+  2.0+
080111 E00 (3.8-  0.0 )   080201 467  0.0   0.2+    080218 J47  0.4+  1.1-
080111 E00  0.1-  0.3+    080201 467  0.0   0.2+    080218 J47  0.9+  0.2+
080111 413  0.0   0.3+    080201 467  0.1+  0.2+    080218 J47 (1.2-  2.7-)
080111 413  0.0   0.4+    080201 467  0.2-  0.1+    080224 D88  1.6+  0.2+
080111 413  0.0   0.3+    080201 467  0.1-  0.1-    080224 D88  0.6+  0.1-
080111 D35  0.3-  0.7-    080201 467  0.1-  0.0     080224 D88  0.0   0.1-
080111 D35  0.7+  0.4-    080203 372  0.0   0.2+    080226 467  0.2-  0.1-
080111 D35  1.5+  0.3-    080203 372  0.2-  0.1-    080226 467  0.1-  0.0
080111 E12  0.4-  0.4-    080203 372  0.3+  0.6+    080226 467  0.2-  0.1-
080112 834  0.1-  0.1-    080204 372  0.3-  0.4+    080227 834  0.0   0.3-
080112 834  0.3+  0.1+    080204 372  0.3+  0.0     080227 834  0.5-  0.3-
080112 834  0.1-  0.3+    080205 834  0.4+  0.3-    080228 467  0.2-  0.0
080112 413  0.0   0.3+    080205 834  0.2+  0.4-    080228 467  0.1-  0.2-
080112 372  0.3-  0.5+    080205 834  0.0   0.4-    080228 467  0.3-  0.0
080112 372  0.4-  0.7+    080205 467  0.1+  0.0     080229 E12  0.1-  0.2+
080112 372  0.7-  0.7+    080205 467  0.2-  0.2+    080229 423  0.1+  0.3-
080112 413  0.4+  0.4-    080205 467  0.2-  0.1+    080229 423  0.1+  0.1+
080112 413  0.1-  0.2-    080205 467  0.0   0.0     080302 423  0.2+  0.1+
080113 834  0.1+  0.2+    080205 467  0.0   0.1-    080302 423  0.2-  0.0
080113 834  0.1+  0.1+    080205 467  0.1-  0.1-    080303 423  0.1-  0.0
080113 834  0.1-  0.0     080205 J46  0.3+  0.2+    080303 423  0.0   0.2-
080113 E12  0.1+  0.0     080205 J46  0.1-  0.5-    080308 423  0.3+  0.3-
080114 E00  1.2-  1.2-    080206 J46  0.1-  0.8-    080308 423  0.3-  0.1+
080114 E00  0.0   0.4-    080206 834  0.1-  0.4-    080311 467 (1.3-  2.2+)
080114 D90  0.0   0.1+    080206 834  0.2+  0.1+    080311 467  0.6-  1.4+
080114 E00  0.8+  1.4-    080206 467  0.1-  0.0     080311 467  0.3-  1.0+
080114 D90  0.2+  0.2+    080206 467  0.0   0.2-    080311 423  0.0   0.3-
080114 E00  0.3+  1.1+    080206 467  0.1+  0.1-    080311 423  0.1-  0.1-
080115 423  0.1+  0.1+    080206 467  0.1-  0.0     080312 423  0.0   0.3-
080115 423  0.2+  0.3+    080206 467  0.2-  0.0     080312 423  0.0   0.1-
080115 415  0.3-  0.3+    080206 467  0.0   0.1-    080313 423  0.2-  0.2-
080115 415  0.1-  0.2+    080207 467  0.2-  0.1-    080313 423  0.1+  0.2-
080116 673  0.8+  0.0     080207 467  0.1-  0.0     080315 900  0.1+  0.5-
080116 673  0.6-  0.0     080207 467  0.0   0.1+    080315 900  0.0   0.1-
080116 673  0.3-  0.2-    080207 467  0.0   0.0     080315 423  0.1+  0.1+
080116 673  0.1-  0.2+    080207 E12  0.1+  0.1+    080315 423  0.4+  0.1+
080116 372  0.1-  0.4-    080207 372  0.5+  0.0     080316 467  0.3-  0.3+
080117 834  0.1-  0.1-    080207 372  0.5+  0.8+    080316 467  0.0   0.3-
080117 834  0.1-  0.0     080207 372  0.1+  0.1+    080316 467  0.1-  0.4-
080117 834  0.5-  0.1-    080208 467  0.2-  0.1-    080316 423  0.1+  0.1-
080117 834  0.3-  0.2-    080208 467  0.1-  0.1-    080316 423  0.1+  0.1-
080120 834  0.0   0.3-    080208 467  0.1-  0.0     080316 415  0.2-  0.2+
080120 834  0.2-  0.1+    080208 467  0.2-  0.0     080316 415  0.3-  0.3+

     The "original" and "future" barycentric values of 1/a are +0.000105
and +0.000374 (+/- 0.000016) AU^-1, respectively.

Brian G. Marsden             (C) Copyright 2008 MPC           M.P.E.C. 2008-F02

Read MPEC 2008-F01 Read MPEC 2008-F03


Our Web policy. Index to the CBAT/MPC/ICQ pages.


Valid HTML 4.01!